Kenai, AK

4:57 PM AKDT on August 28, 2016 (GMT -0800)
Kenai Municipal

Weather History for PAEN - February, 2011

Change the Weather History Date:

Saturday, February 26, 2011

  Actual Average Record
Temperature  
Mean Temperature 18 °F -  
Max Temperature 23 °F 31 °F 43 °F (1968)
Min Temperature 12 °F 13 °F -34 °F (1954)
Degree Days  
Heating Degree Days 48    
Moisture  
Dew Point 1 °F    
Average Humidity 48    
Maximum Humidity 62    
Minimum Humidity 38    
Precipitation  
Precipitation 0.00 in - - ()
Sea Level Pressure  
Sea Level Pressure 30.39 in    
Wind  
Wind Speed 13 mph (NE)    
Max Wind Speed 32 mph    
Max Gust Speed 45 mph    
Visibility 10 miles    
Events      
Averages and records for this station are not official NWS values.
T = Trace of Precipitation, MM = Missing Value Source: NWS Daily Summary

Daily Weather History Graph

Daily Weather History Graph

Search for Another Location

Airport or City:

Trip Planner

Search our weather history database for the weather conditions in past years. The results will help you decide how hot, cold, wet, or windy it might be!

Date:

Astronomy

Feb. 26, 2011 Rise Set
Actual Time 8:13 AM AKST 6:23 PM AKST
Civil Twilight 7:30 AM AKST 7:06 PM AKST
Nautical Twilight 6:41 AM AKST 7:55 PM AKST
Astronomical Twilight 5:52 AM AKST 8:45 PM AKST
Moon 5:56 AM AKST (2/26) 11:17 AM AKST (2/26)
Length of Visible Light 11h 35m
Length of Day
10h 09m
Waning Crescent, 31% of the Moon is Illuminated
Feb 26
Waning Crescent
Mar 4
New
Mar 12
First Quarter
Mar 19
Full
Mar 26
Last Quarter

Hourly Weather History & Observations

Time (AKST) Temp. Windchill Dew Point Humidity Pressure Visibility Wind Dir Wind Speed Gust Speed Precip Events Conditions
12:53 AM 23.0 °F 13.1 °F 8.1 °F 53% 30.31 in 10.0 mi ENE 9.2 mph - N/A   Clear
1:53 AM 21.0 °F 12.4 °F 8.1 °F 57% 30.33 in 10.0 mi ENE 6.9 mph - N/A   Clear
2:53 AM 19.9 °F 13.4 °F 7.0 °F 57% 30.34 in 10.0 mi ESE 4.6 mph - N/A   Clear
3:53 AM 15.1 °F 9.4 °F 3.9 °F 61% 30.36 in 10.0 mi SE 3.5 mph - N/A   Clear
4:53 AM 14.0 °F 5.1 °F 3.0 °F 62% 30.37 in 10.0 mi SSW 5.8 mph - N/A   Clear
5:53 AM 16.0 °F - 1.9 °F 54% 30.36 in 10.0 mi Calm Calm - N/A   Clear
6:53 AM 12.0 °F 1.5 °F -0.9 °F 56% 30.37 in 10.0 mi ESE 6.9 mph - N/A   Clear
7:53 AM 12.9 °F 5.2 °F -0.9 °F 54% 30.37 in 10.0 mi ESE 4.6 mph - N/A   Clear
8:53 AM 14.0 °F 5.1 °F -0.9 °F 52% 30.37 in 10.0 mi East 5.8 mph - N/A   Clear
9:53 AM 14.0 °F 5.1 °F 1.0 °F 56% 30.39 in 10.0 mi East 5.8 mph - N/A   Clear
10:53 AM 19.0 °F 4.0 °F 1.0 °F 46% 30.41 in 10.0 mi NNE 17.3 mph 21.9 mph N/A   Clear
11:05 AM 19.4 °F 5.0 °F 1.4 °F 46% 30.40 in 10.0 mi North 16.1 mph - N/A   Clear
11:53 AM 21.0 °F 4.6 °F -0.0 °F 40% 30.43 in 10.0 mi North 23.0 mph 32.2 mph N/A   Clear
12:53 PM 21.9 °F 6.2 °F 3.0 °F 44% 30.43 in 10.0 mi North 21.9 mph 39.1 mph 0.00 in   Clear
1:53 PM 21.9 °F 4.5 °F 1.9 °F 42% 30.43 in 10.0 mi North 27.6 mph 36.8 mph N/A   Clear
2:53 PM 21.0 °F 4.3 °F -0.9 °F 38% 30.42 in 10.0 mi North 24.2 mph 38.0 mph N/A   Clear
3:53 PM 21.0 °F 3.3 °F -0.0 °F 40% 30.41 in 9.0 mi North 27.6 mph 38.0 mph N/A   Clear
4:53 PM 19.9 °F 4.8 °F -0.0 °F 42% 30.41 in 10.0 mi NNE 18.4 mph 26.5 mph N/A   Clear
5:53 PM 19.0 °F 0.3 °F -0.9 °F 42% 30.42 in 10.0 mi NNE 28.8 mph 36.8 mph N/A   Clear
6:53 PM 18.0 °F -0.8 °F -0.9 °F 44% 30.41 in 9.0 mi NNE 27.6 mph 39.1 mph N/A   Clear
7:53 PM 19.0 °F 0.0 °F -0.0 °F 43% 30.41 in 6.0 mi North 29.9 mph 44.9 mph N/A   Clear
8:53 PM 19.9 °F 0.7 °F -2.0 °F 38% 30.40 in 5.0 mi North 32.2 mph 43.7 mph N/A   Haze
9:53 PM 19.0 °F 1.3 °F -2.0 °F 40% 30.42 in 10.0 mi NNE 25.3 mph 34.5 mph N/A   Clear
10:53 PM 18.0 °F 0.2 °F -0.9 °F 44% 30.44 in 10.0 mi NE 24.2 mph 36.8 mph N/A   Clear
11:53 PM 15.1 °F -2.5 °F -2.0 °F 47% 30.46 in 10.0 mi NE 20.7 mph 32.2 mph N/A   Clear